BIZ131 KVNY-KBFI

Flight info

Callsign BIZ131
Flight time N/A
Altitude 38000
Route HAYEZ9 CSTRO SWR BIDDS BTG OLM2
Aircraft C750/M-SBDE3FGHRWXY/S

Departure

Time N/A
Airport Van Nuys Airport (KVNY)

Arrival

Time 2026-04-28 22:17
Airport King County International Airport - Boeing Field (KBFI)
Time Latitude Longitude Altitude Speed Heading
2026-04-28 20:26 34.96841 -118.90239 26461 ft 404 kts 322°
2026-04-28 20:26 34.99301 -118.91935 26989 ft 408 kts 321°
2026-04-28 20:26 35.01782 -118.93647 27502 ft 411 kts 321°
2026-04-28 20:27 35.04282 -118.95373 27989 ft 415 kts 321°
2026-04-28 20:27 35.06806 -118.97117 28465 ft 419 kts 321°
2026-04-28 20:27 35.09349 -118.98876 28967 ft 422 kts 320°
2026-04-28 20:27 35.11910 -119.00650 29427 ft 425 kts 320°
2026-04-28 20:28 35.14496 -119.02443 29911 ft 428 kts 320°
2026-04-28 20:28 35.17102 -119.04248 30339 ft 432 kts 320°
2026-04-28 20:28 35.19725 -119.06067 30800 ft 435 kts 320°
2026-04-28 20:28 35.22366 -119.07899 31300 ft 436 kts 319°
2026-04-28 20:29 35.24994 -119.09720 31967 ft 433 kts 319°
2026-04-28 20:29 35.27604 -119.11533 32586 ft 430 kts 319°
2026-04-28 20:29 35.30200 -119.13342 33210 ft 428 kts 318°
2026-04-28 20:29 35.32779 -119.15140 33803 ft 426 kts 317°
2026-04-28 20:30 35.35352 -119.16933 34389 ft 424 kts 317°
2026-04-28 20:30 35.37913 -119.18717 34958 ft 423 kts 317°
2026-04-28 20:30 35.40471 -119.20504 35487 ft 423 kts 317°
2026-04-28 20:30 35.43044 -119.22249 36050 ft 426 kts 321°
2026-04-28 20:31 35.45833 -119.23644 36536 ft 440 kts 329°
2026-04-28 20:31 35.48832 -119.24600 37040 ft 450 kts 336°
2026-04-28 20:31 35.51885 -119.25381 37631 ft 446 kts 336°
2026-04-28 20:31 35.54908 -119.26182 38138 ft 445 kts 336°
2026-04-28 20:32 35.57971 -119.27021 38141 ft 457 kts 336°
2026-04-28 20:32 35.61120 -119.27864 38142 ft 469 kts 337°
2026-04-28 20:32 35.64350 -119.28701 38147 ft 480 kts 338°
2026-04-28 20:33 35.71007 -119.30463 38150 ft 498 kts 338°
2026-04-28 20:33 35.77911 -119.32301 38155 ft 516 kts 338°
2026-04-28 20:34 35.85009 -119.34178 38142 ft 524 kts 339°
2026-04-28 20:34 35.92151 -119.36084 38147 ft 526 kts 338°
2026-04-28 20:35 35.99301 -119.37993 38147 ft 526 kts 339°
2026-04-28 20:35 36.06453 -119.39906 38146 ft 525 kts 339°
2026-04-28 20:36 36.13590 -119.41820 38146 ft 525 kts 339°
2026-04-28 20:36 36.20726 -119.43736 38145 ft 525 kts 339°
2026-04-28 20:37 36.27861 -119.45654 38146 ft 525 kts 339°
2026-04-28 20:37 36.34995 -119.47577 38160 ft 524 kts 339°
2026-04-28 20:38 36.42129 -119.49505 38155 ft 525 kts 339°
2026-04-28 20:38 36.49247 -119.51430 38144 ft 523 kts 339°
2026-04-28 20:39 36.56362 -119.53358 38151 ft 523 kts 340°
2026-04-28 20:39 36.63481 -119.55294 38133 ft 524 kts 340°
2026-04-28 20:40 36.70595 -119.57226 38132 ft 523 kts 340°
2026-04-28 20:40 36.77711 -119.59168 38134 ft 523 kts 340°
2026-04-28 20:41 36.84827 -119.61111 38140 ft 523 kts 340°
2026-04-28 20:41 36.91942 -119.63058 38140 ft 523 kts 340°
2026-04-28 20:42 36.99032 -119.65001 38146 ft 522 kts 341°
2026-04-28 20:42 37.06131 -119.66952 38140 ft 522 kts 341°
2026-04-28 20:43 37.13226 -119.68904 38140 ft 522 kts 341°
2026-04-28 20:43 37.20306 -119.70857 38141 ft 521 kts 341°
2026-04-28 20:44 37.27388 -119.72813 38157 ft 521 kts 342°
2026-04-28 20:44 37.34462 -119.74771 38163 ft 520 kts 342°
2026-04-28 20:45 37.41535 -119.76733 38161 ft 520 kts 342°
2026-04-28 20:45 37.48642 -119.78708 38167 ft 519 kts 342°
2026-04-28 20:46 37.55702 -119.80674 38163 ft 519 kts 343°
2026-04-28 20:46 37.62748 -119.82639 38160 ft 519 kts 343°
2026-04-28 20:47 37.69802 -119.84611 38160 ft 518 kts 343°
2026-04-28 20:47 37.76841 -119.86582 38165 ft 518 kts 343°
2026-04-28 20:48 37.83879 -119.88557 38161 ft 518 kts 343°
2026-04-28 20:48 37.90909 -119.90533 38161 ft 517 kts 343°
2026-04-28 20:49 37.97940 -119.92516 38159 ft 518 kts 343°
2026-04-28 20:49 38.04972 -119.94498 38165 ft 518 kts 343°
2026-04-28 20:50 38.12006 -119.96488 38161 ft 518 kts 343°
2026-04-28 20:50 38.19033 -119.98478 38165 ft 517 kts 343°
2026-04-28 20:51 38.26066 -120.00476 38168 ft 518 kts 343°
2026-04-28 20:51 38.33090 -120.02475 38169 ft 517 kts 343°
2026-04-28 20:52 38.40101 -120.04473 38169 ft 516 kts 343°
2026-04-28 20:52 38.47105 -120.06473 38177 ft 516 kts 343°
2026-04-28 20:53 38.57592 -120.09477 38179 ft 514 kts 344°
2026-04-28 20:53 38.64568 -120.11478 38181 ft 513 kts 344°
2026-04-28 20:54 38.71526 -120.13480 38187 ft 512 kts 344°
2026-04-28 20:54 38.78479 -120.15484 38185 ft 512 kts 344°
2026-04-28 20:55 38.85437 -120.17493 38189 ft 512 kts 344°
2026-04-28 20:55 38.92384 -120.19503 38187 ft 511 kts 345°
2026-04-28 20:56 38.98151 -120.21175 38191 ft 511 kts 345°
2026-04-28 20:56 39.05069 -120.23183 38190 ft 509 kts 345°
2026-04-28 20:57 39.11980 -120.25196 38190 ft 509 kts 345°
2026-04-28 20:57 39.18877 -120.27248 38180 ft 507 kts 343°
2026-04-28 20:58 39.25673 -120.29694 38192 ft 507 kts 342°
2026-04-28 20:58 39.32472 -120.32111 38192 ft 506 kts 343°
2026-04-28 20:59 39.39261 -120.34547 38193 ft 506 kts 343°
2026-04-28 20:59 39.46046 -120.36983 38194 ft 506 kts 343°
2026-04-28 21:00 39.52830 -120.39416 38193 ft 505 kts 343°
2026-04-28 21:00 39.59599 -120.41861 38193 ft 505 kts 343°
2026-04-28 21:01 39.66375 -120.44303 38192 ft 506 kts 343°
2026-04-28 21:01 39.73153 -120.46757 38191 ft 505 kts 343°
2026-04-28 21:02 39.79925 -120.49212 38193 ft 505 kts 343°
2026-04-28 21:02 39.86693 -120.51670 38191 ft 505 kts 343°
2026-04-28 21:03 39.93461 -120.54134 38193 ft 505 kts 343°
2026-04-28 21:03 40.00226 -120.56602 38187 ft 505 kts 343°
2026-04-28 21:04 40.06975 -120.59068 38189 ft 501 kts 343°
2026-04-28 21:04 40.13688 -120.61526 38187 ft 501 kts 343°
2026-04-28 21:05 40.20394 -120.63988 38186 ft 500 kts 343°
2026-04-28 21:05 40.27087 -120.66449 38187 ft 500 kts 343°
2026-04-28 21:06 40.33774 -120.68914 38188 ft 499 kts 344°
2026-04-28 21:06 40.40446 -120.71378 38189 ft 498 kts 344°
2026-04-28 21:07 40.47115 -120.73844 38182 ft 498 kts 344°
2026-04-28 21:07 40.53773 -120.76315 38180 ft 495 kts 344°
2026-04-28 21:08 40.60311 -120.78744 38178 ft 485 kts 345°
2026-04-28 21:08 40.66807 -120.81161 38179 ft 485 kts 345°
2026-04-28 21:09 40.73300 -120.83586 38178 ft 484 kts 345°
2026-04-28 21:09 40.79773 -120.86003 38181 ft 483 kts 345°
2026-04-28 21:10 40.86277 -120.88441 38182 ft 482 kts 345°
2026-04-28 21:10 40.92722 -120.90859 38179 ft 481 kts 345°
2026-04-28 21:11 40.99155 -120.93279 38179 ft 480 kts 345°
2026-04-28 21:11 41.05574 -120.95698 38179 ft 479 kts 345°
2026-04-28 21:12 41.11975 -120.98116 38179 ft 478 kts 345°
2026-04-28 21:12 41.18365 -121.00534 38186 ft 477 kts 345°
2026-04-28 21:13 41.24753 -121.02955 38188 ft 477 kts 345°
2026-04-28 21:13 41.31137 -121.05381 38191 ft 476 kts 345°
2026-04-28 21:14 41.37500 -121.07804 38190 ft 476 kts 345°
2026-04-28 21:14 41.43855 -121.10228 38190 ft 475 kts 345°
2026-04-28 21:15 41.50194 -121.12651 38189 ft 474 kts 345°
2026-04-28 21:15 41.56521 -121.15075 38190 ft 473 kts 345°
2026-04-28 21:16 41.62828 -121.17496 38189 ft 471 kts 345°
2026-04-28 21:16 41.69130 -121.19920 38188 ft 470 kts 345°
2026-04-28 21:17 41.75417 -121.22343 38187 ft 469 kts 345°
2026-04-28 21:17 41.81687 -121.24764 38189 ft 469 kts 345°
2026-04-28 21:18 41.87966 -121.27194 38188 ft 469 kts 345°
2026-04-28 21:18 41.94232 -121.29625 38190 ft 468 kts 345°
2026-04-28 21:19 42.00486 -121.32053 38188 ft 467 kts 345°
2026-04-28 21:19 42.06707 -121.34476 38189 ft 462 kts 345°
2026-04-28 21:20 42.12890 -121.36887 38187 ft 463 kts 345°
2026-04-28 21:20 42.19087 -121.39311 38188 ft 463 kts 345°
2026-04-28 21:21 42.25287 -121.41673 38181 ft 462 kts 348°
2026-04-28 21:21 42.31558 -121.43637 38184 ft 463 kts 348°
2026-04-28 21:22 42.37818 -121.45640 38187 ft 463 kts 348°
2026-04-28 21:22 42.43032 -121.47292 38186 ft 463 kts 348°
2026-04-28 21:23 42.50366 -121.49632 38186 ft 464 kts 348°
2026-04-28 21:23 42.56644 -121.51638 38188 ft 463 kts 348°
2026-04-28 21:24 42.62923 -121.53649 38188 ft 463 kts 348°
2026-04-28 21:24 42.69194 -121.55661 38187 ft 463 kts 348°
2026-04-28 21:25 42.75470 -121.57678 38190 ft 463 kts 347°
2026-04-28 21:25 42.81743 -121.59700 38186 ft 463 kts 347°
2026-04-28 21:26 42.88013 -121.61724 38191 ft 463 kts 347°
2026-04-28 21:26 42.94287 -121.63754 38196 ft 463 kts 347°
2026-04-28 21:27 43.00552 -121.65785 38196 ft 463 kts 347°
2026-04-28 21:27 43.06822 -121.67822 38196 ft 463 kts 347°
2026-04-28 21:28 43.13090 -121.69864 38196 ft 463 kts 347°
2026-04-28 21:28 43.19353 -121.71907 38205 ft 463 kts 347°
2026-04-28 21:29 43.25625 -121.73957 38206 ft 463 kts 347°
2026-04-28 21:29 43.31887 -121.76010 38204 ft 463 kts 347°
2026-04-28 21:30 43.38153 -121.78067 38207 ft 463 kts 347°
2026-04-28 21:30 43.44415 -121.80127 38207 ft 463 kts 346°
2026-04-28 21:31 43.50677 -121.82193 38207 ft 462 kts 346°
2026-04-28 21:31 43.56927 -121.84257 38208 ft 462 kts 346°
2026-04-28 21:32 43.63175 -121.86330 38206 ft 462 kts 346°
2026-04-28 21:32 43.69425 -121.88399 38208 ft 462 kts 346°
2026-04-28 21:33 43.75669 -121.90479 38207 ft 461 kts 346°
2026-04-28 21:33 43.81903 -121.92555 38206 ft 461 kts 346°
2026-04-28 21:34 43.88139 -121.94639 38208 ft 461 kts 346°
2026-04-28 21:34 43.94373 -121.96725 38209 ft 461 kts 346°
2026-04-28 21:35 43.99602 -121.98481 38211 ft 461 kts 346°
2026-04-28 21:35 44.05838 -122.00574 38211 ft 461 kts 346°
2026-04-28 21:36 44.12071 -122.02675 38206 ft 461 kts 346°
2026-04-28 21:36 44.18305 -122.04778 38209 ft 461 kts 346°
2026-04-28 21:37 44.24541 -122.06889 38209 ft 461 kts 346°
2026-04-28 21:37 44.30731 -122.08986 38224 ft 460 kts 346°
2026-04-28 21:38 44.37002 -122.11115 38224 ft 461 kts 346°
2026-04-28 21:38 44.43196 -122.13227 38228 ft 461 kts 346°
2026-04-28 21:39 44.49430 -122.15352 38237 ft 461 kts 346°
2026-04-28 21:39 44.55709 -122.17502 38228 ft 461 kts 346°
2026-04-28 21:40 44.61916 -122.19627 38235 ft 462 kts 346°
2026-04-28 21:40 44.68205 -122.21790 38251 ft 462 kts 345°
2026-04-28 21:41 44.74451 -122.23938 38249 ft 462 kts 346°
2026-04-28 21:41 44.80702 -122.26095 38252 ft 462 kts 345°
2026-04-28 21:42 44.86952 -122.28257 38260 ft 463 kts 345°
2026-04-28 21:42 44.93207 -122.30425 38260 ft 463 kts 345°
2026-04-28 21:43 44.99460 -122.32597 38271 ft 463 kts 345°
2026-04-28 21:43 45.05716 -122.34775 38266 ft 463 kts 345°
2026-04-28 21:44 45.11976 -122.36959 38266 ft 463 kts 345°
2026-04-28 21:44 45.18241 -122.39151 38276 ft 465 kts 345°
2026-04-28 21:45 45.24516 -122.41350 38279 ft 464 kts 345°
2026-04-28 21:45 45.30792 -122.43556 38275 ft 464 kts 345°
2026-04-28 21:46 45.37066 -122.45764 38278 ft 465 kts 345°
2026-04-28 21:46 45.43339 -122.47977 38279 ft 465 kts 345°
2026-04-28 21:47 45.49630 -122.50203 38279 ft 466 kts 345°
2026-04-28 21:47 45.55919 -122.52433 38281 ft 466 kts 345°
2026-04-28 21:48 45.62211 -122.54670 38287 ft 466 kts 345°
2026-04-28 21:48 45.68504 -122.56910 38289 ft 466 kts 345°
2026-04-28 21:49 45.74802 -122.59140 38283 ft 466 kts 346°
2026-04-28 21:49 45.81204 -122.60727 38293 ft 467 kts 348°
2026-04-28 21:50 45.87601 -122.62350 38294 ft 467 kts 348°
2026-04-28 21:50 45.94014 -122.63928 38298 ft 467 kts 348°
2026-04-28 21:51 46.00424 -122.65542 38295 ft 467 kts 348°
2026-04-28 21:51 46.06848 -122.67144 38295 ft 471 kts 348°
2026-04-28 21:52 46.13299 -122.68767 38295 ft 470 kts 348°
2026-04-28 21:52 46.19657 -122.70366 37586 ft 449 kts 348°
2026-04-28 21:53 46.22678 -122.71123 36912 ft 431 kts 348°
2026-04-28 21:53 46.25575 -122.71856 36267 ft 415 kts 348°
2026-04-28 21:53 46.28388 -122.72570 35655 ft 407 kts 347°
2026-04-28 21:53 46.31178 -122.73279 35041 ft 411 kts 347°
2026-04-28 21:54 46.34021 -122.73999 34401 ft 419 kts 348°
2026-04-28 21:54 46.36902 -122.74726 33851 ft 423 kts 348°
2026-04-28 21:54 46.39815 -122.75464 33195 ft 426 kts 348°
2026-04-28 21:54 46.42741 -122.76209 32534 ft 428 kts 348°
2026-04-28 21:55 46.45680 -122.76958 31878 ft 430 kts 348°
2026-04-28 21:55 46.48640 -122.77710 31215 ft 433 kts 348°
2026-04-28 21:55 46.51621 -122.78469 30545 ft 435 kts 348°
2026-04-28 21:55 46.54588 -122.79226 29877 ft 430 kts 348°
2026-04-28 21:56 46.57523 -122.79975 29227 ft 427 kts 348°
2026-04-28 21:56 46.60433 -122.80720 28584 ft 423 kts 348°
2026-04-28 21:56 46.63322 -122.81459 27939 ft 419 kts 348°
2026-04-28 21:56 46.66182 -122.82193 27304 ft 416 kts 348°
2026-04-28 21:57 46.69022 -122.82921 26673 ft 413 kts 348°
2026-04-28 21:57 46.71836 -122.83642 26046 ft 409 kts 348°
2026-04-28 21:57 46.74628 -122.84360 25428 ft 406 kts 348°
2026-04-28 21:57 46.77403 -122.85076 24812 ft 403 kts 348°
2026-04-28 21:58 46.80151 -122.85782 24200 ft 399 kts 348°
2026-04-28 21:58 46.82867 -122.86482 23597 ft 389 kts 348°
2026-04-28 21:58 46.85459 -122.87151 23032 ft 368 kts 348°
2026-04-28 21:58 46.87923 -122.87788 22492 ft 353 kts 348°
2026-04-28 21:59 46.90315 -122.88408 21965 ft 347 kts 348°
2026-04-28 21:59 46.92682 -122.89022 21436 ft 344 kts 348°
2026-04-28 21:59 46.95052 -122.89403 20884 ft 345 kts 359°
2026-04-28 22:00 46.99563 -122.87101 19847 ft 352 kts 32°
2026-04-28 22:00 47.01435 -122.84786 19337 ft 352 kts 38°
2026-04-28 22:00 47.03264 -122.82422 18799 ft 350 kts 38°
2026-04-28 22:00 47.05115 -122.80052 18247 ft 347 kts 38°
2026-04-28 22:01 47.06931 -122.77751 17717 ft 344 kts 37°
2026-04-28 22:01 47.08729 -122.75463 17188 ft 341 kts 38°
2026-04-28 22:01 47.10512 -122.73178 16662 ft 339 kts 38°
2026-04-28 22:01 47.12283 -122.70908 16145 ft 337 kts 38°
2026-04-28 22:02 47.14046 -122.68652 15633 ft 335 kts 38°
2026-04-28 22:02 47.15799 -122.66408 15120 ft 333 kts 39°
2026-04-28 22:02 47.17536 -122.64179 14615 ft 331 kts 39°
2026-04-28 22:02 47.19244 -122.61983 14113 ft 319 kts 39°
2026-04-28 22:03 47.20878 -122.59882 13636 ft 307 kts 39°
2026-04-28 22:03 47.22468 -122.57840 13181 ft 301 kts 39°
2026-04-28 22:03 47.24150 -122.56064 12534 ft 296 kts 22°
2026-04-28 22:03 47.26157 -122.55527 11744 ft 293 kts
2026-04-28 22:04 47.28176 -122.55614 11066 ft 289 kts 356°
2026-04-28 22:04 47.30186 -122.55799 10403 ft 291 kts 355°
2026-04-28 22:04 47.32154 -122.55993 10287 ft 277 kts 355°
2026-04-28 22:04 47.34106 -122.56191 10286 ft 283 kts 355°
2026-04-28 22:05 47.36081 -122.56395 10285 ft 285 kts 355°
2026-04-28 22:05 47.38065 -122.56599 10282 ft 286 kts 355°
2026-04-28 22:05 47.40053 -122.56804 10283 ft 287 kts 355°
2026-04-28 22:05 47.42049 -122.57010 10285 ft 293 kts 355°
2026-04-28 22:06 47.44091 -122.57222 10030 ft 288 kts 355°
2026-04-28 22:06 47.46059 -122.57425 9418 ft 282 kts 355°
2026-04-28 22:06 47.48020 -122.57627 8716 ft 281 kts 355°
2026-04-28 22:06 47.49950 -122.57825 8255 ft 272 kts 355°
2026-04-28 22:07 47.51751 -122.58006 8231 ft 247 kts 355°
2026-04-28 22:07 47.53397 -122.58167 8092 ft 231 kts 355°
2026-04-28 22:07 47.55009 -122.58323 7605 ft 233 kts 355°
2026-04-28 22:07 47.56623 -122.58479 7214 ft 232 kts 355°
2026-04-28 22:08 47.58224 -122.58632 6815 ft 229 kts 355°
2026-04-28 22:08 47.59814 -122.58783 6398 ft 228 kts 355°
2026-04-28 22:08 47.61393 -122.58933 5990 ft 227 kts 355°
2026-04-28 22:08 47.62961 -122.59078 5571 ft 226 kts 355°
2026-04-28 22:09 47.64525 -122.59224 5169 ft 224 kts 355°
2026-04-28 22:09 47.66076 -122.59370 4770 ft 223 kts 355°
2026-04-28 22:09 47.67620 -122.59522 4356 ft 222 kts 355°
2026-04-28 22:09 47.69154 -122.59675 3976 ft 220 kts 355°
2026-04-28 22:10 47.70667 -122.59512 3439 ft 224 kts 20°
2026-04-28 22:10 47.71803 -122.57980 3017 ft 223 kts 58°
2026-04-28 22:10 47.72464 -122.55929 2687 ft 219 kts 65°
2026-04-28 22:10 47.73094 -122.53855 2332 ft 223 kts 65°
2026-04-28 22:11 47.73729 -122.51795 2221 ft 213 kts 65°
2026-04-28 22:11 47.73967 -122.49653 2141 ft 215 kts 101°
2026-04-28 22:11 47.73208 -122.47817 2195 ft 211 kts 135°
2026-04-28 22:11 47.72100 -122.46498 2212 ft 190 kts 148°
2026-04-28 22:12 47.71016 -122.45573 2204 ft 174 kts 151°
2026-04-28 22:12 47.69974 -122.44690 2197 ft 173 kts 151°
2026-04-28 22:12 47.68928 -122.43792 2195 ft 175 kts 151°
2026-04-28 22:12 47.68230 -122.43199 2195 ft 174 kts 152°
2026-04-28 22:13 47.67179 -122.42301 2194 ft 174 kts 151°
2026-04-28 22:13 47.66126 -122.41400 2193 ft 175 kts 152°
2026-04-28 22:13 47.65071 -122.40504 2196 ft 175 kts 152°
2026-04-28 22:13 47.64016 -122.39607 2198 ft 175 kts 151°
2026-04-28 22:14 47.62944 -122.38688 2012 ft 180 kts 152°
2026-04-28 22:14 47.61867 -122.37773 1773 ft 173 kts 152°
2026-04-28 22:14 47.60858 -122.36915 1541 ft 167 kts 152°
2026-04-28 22:14 47.59864 -122.36072 1324 ft 154 kts 152°
2026-04-28 22:15 47.59006 -122.35343 1133 ft 135 kts 152°
2026-04-28 22:15 47.58201 -122.34656 960 ft 133 kts 152°
2026-04-28 22:15 47.57396 -122.33971 790 ft 133 kts 152°
2026-04-28 22:15 47.56591 -122.33289 613 ft 133 kts 152°
2026-04-28 22:16 47.55798 -122.32619 441 ft 128 kts 151°
2026-04-28 22:16 47.55016 -122.31952 283 ft 129 kts 151°
2026-04-28 22:16 47.54280 -122.31327 112 ft 115 kts 152°
2026-04-28 22:16 47.53624 -122.30776 24 ft 100 kts 150°
2026-04-28 22:17 47.53175 -122.30391 24 ft 45 kts 150°
2026-04-28 22:17 47.53028 -122.30221 22 ft 15 kts 69°
2026-04-28 22:17 47.53060 -122.30142 24 ft 6 kts 60°
2026-04-28 22:17 47.53086 -122.30083 24 ft 12 kts 57°
2026-04-28 22:18 47.53083 -122.30025 26 ft 11 kts 143°
2026-04-28 22:18 47.52981 -122.29932 24 ft 13 kts 147°
2026-04-28 22:18 47.52972 -122.29791 24 ft 5 kts 89°
2026-04-28 22:18 47.52968 -122.29787 24 ft 5 kts 142°